Change the Weather History Date:

Saturday, March 29, 2014

  Actual Average (KMDW) Record (KMDW)
Temperature  
Mean Temperature 32 °F 44 °F  
Max Temperature 36 °F 52 °F 86 °F (1986)
Min Temperature 29 °F 35 °F 17 °F (1969)
Degree Days  
Heating Degree Days 32 21  
Month to date heating degree days 770  
Since 1 July heating degree days 5281  
Cooling Degree Days 0 0  
Month to date cooling degree days 0  
Year to date cooling degree days 0  
Moisture  
Dew Point 27 °F    
Average Humidity 80    
Maximum Humidity 92    
Minimum Humidity 67    
Precipitation  
Precipitation 0.00 in 0.09 in 1.33 in (1979)
Month to date precipitation 2.51  
Year to date precipitation 6.51  
Sea Level Pressure  
Sea Level Pressure 30.19 in    
Wind  
Wind Speed 7 mph (North)    
Max Wind Speed 16 mph    
Max Gust Speed 24 mph    
Visibility 9 miles    
Events      
T = Trace of Precipitation, MM = Missing Value Source: NWS Daily Summary

Daily Weather History Graph

Daily Weather History Graph

Search for Another Location

Airport or City:

Trip Planner

Search our weather history database for the weather conditions in past years. The results will help you decide how hot, cold, wet, or windy it might be!

Date:

Astronomy

Mar. 29, 2014 Rise Set
Actual Time 6:38 AM CDT 7:12 PM CDT
Civil Twilight 6:10 AM CDT 7:40 PM CDT
Nautical Twilight 5:37 AM CDT 8:13 PM CDT
Astronomical Twilight 5:03 AM CDT 8:47 PM CDT
Moon 5:47 AM CDT (3/29) 6:16 PM CDT (3/29)
Length of Visible Light 13h 29m
Length of Day
12h 34m
Waning Crescent, 2% of the Moon is Illuminated
Mar 29
Waning Crescent
Mar 30
New
Apr 7
First Quarter
Apr 15
Full
Apr 22
Last Quarter

Hourly Weather History & Observations

Time (CDT) Temp. Windchill Dew Point Humidity Pressure Visibility Wind Dir Wind Speed Gust Speed Precip Events Conditions
12:15 AM 33.8 °F 29.6 °F 26.1 °F 73% 30.20 in 10.0 mi ENE 4.6 mph - N/A   Overcast
12:35 AM 33.6 °F - 26.4 °F 75% 30.20 in 10.0 mi Calm Calm - N/A   Overcast
12:55 AM 33.8 °F - 26.6 °F 75% 30.19 in 10.0 mi Calm Calm - N/A   Overcast
1:15 AM 33.3 °F - 26.6 °F 77% 30.18 in 10.0 mi Calm Calm - N/A   Overcast
1:35 AM 33.1 °F 30.0 °F 27.1 °F 79% 30.17 in 10.0 mi North 3.5 mph - N/A   Overcast
1:55 AM 32.9 °F 29.8 °F 27.5 °F 81% 30.17 in 10.0 mi NNW 3.5 mph - N/A   Overcast
2:15 AM 32.9 °F 29.8 °F 27.5 °F 81% 30.17 in 10.0 mi NNW 3.5 mph - N/A   Mostly Cloudy
2:35 AM 32.5 °F 28.1 °F 26.6 °F 79% 30.18 in 10.0 mi North 4.6 mph - N/A   Scattered Clouds
2:55 AM 32.2 °F 25.8 °F 27.1 °F 82% 30.17 in 10.0 mi North 6.9 mph - N/A   Scattered Clouds
3:15 AM 32.0 °F 26.4 °F 27.3 °F 83% 30.16 in 10.0 mi North 5.8 mph - N/A   Mostly Cloudy
3:35 AM 32.0 °F 24.8 °F 27.5 °F 83% 30.15 in 10.0 mi North 8.1 mph - N/A   Overcast
3:55 AM 32.0 °F 24.8 °F 27.5 °F 83% 30.14 in 10.0 mi North 8.1 mph - N/A   Overcast
4:15 AM 32.0 °F 24.8 °F 27.5 °F 83% 30.14 in 10.0 mi North 8.1 mph - N/A   Overcast
4:35 AM 32.0 °F 24.8 °F 27.5 °F 83% 30.14 in 10.0 mi North 8.1 mph - N/A   Overcast
4:55 AM 32.0 °F 25.6 °F 27.3 °F 83% 30.15 in 10.0 mi NNE 6.9 mph - N/A   Overcast
5:15 AM 32.0 °F 27.5 °F 27.3 °F 83% 30.14 in 10.0 mi NNE 4.6 mph - N/A   Overcast
5:35 AM 32.0 °F 24.2 °F 27.5 °F 83% 30.14 in 10.0 mi NE 9.2 mph - N/A   Overcast
5:55 AM 32.2 °F 23.8 °F 27.9 °F 84% 30.15 in 10.0 mi NE 10.4 mph - N/A   Overcast
6:15 AM 32.4 °F 25.3 °F 28.4 °F 85% 30.16 in 10.0 mi NE 8.1 mph - N/A   Overcast
6:35 AM 32.4 °F 23.5 °F 29.1 °F 88% 30.16 in 7.0 mi NE 11.5 mph - N/A   Overcast
6:55 AM 32.2 °F 23.2 °F 28.9 °F 88% 30.16 in 10.0 mi NE 11.5 mph - N/A   Overcast
7:15 AM 32.5 °F 24.2 °F 28.9 °F 87% 30.16 in 10.0 mi NE 10.4 mph - N/A   Overcast
7:35 AM 32.9 °F 24.7 °F 28.9 °F 85% 30.16 in 7.0 mi NE 10.4 mph - N/A   Overcast
7:55 AM 33.1 °F 24.4 °F 28.9 °F 85% 30.17 in 7.0 mi NE 11.5 mph - N/A   Overcast
8:15 AM 33.3 °F 25.1 °F 28.9 °F 84% 30.17 in 10.0 mi NNE 10.4 mph 19.6 mph N/A   Overcast
8:35 AM 33.4 °F 24.3 °F 29.3 °F 85% 30.17 in 7.0 mi NNE 12.7 mph - N/A   Overcast
8:55 AM 33.3 °F 23.7 °F 29.8 °F 87% 30.17 in 5.0 mi NNE 13.8 mph 17.3 mph N/A   Overcast
9:15 AM 33.4 °F 25.4 °F 29.3 °F 85% 30.18 in 7.0 mi NNE 10.4 mph 16.1 mph N/A   Overcast
9:35 AM 34.0 °F 25.5 °F 29.3 °F 83% 30.18 in 10.0 mi NNE 11.5 mph - N/A   Overcast
9:55 AM 34.0 °F 26.6 °F 29.8 °F 85% 30.19 in 5.0 mi North 9.2 mph 17.3 mph N/A   Overcast
10:15 AM 34.2 °F 25.7 °F 30.4 °F 86% 30.19 in 5.0 mi NNE 11.5 mph 17.3 mph N/A   Overcast
10:35 AM 34.7 °F 25.9 °F 30.9 °F 86% 30.20 in 5.0 mi NNE 12.7 mph - N/A   Overcast
10:55 AM 35.1 °F 27.9 °F 31.6 °F 87% 30.20 in 4.0 mi NNE 9.2 mph - N/A   Overcast
11:15 AM 35.1 °F 27.9 °F 31.5 °F 87% 30.20 in 4.0 mi North 9.2 mph - N/A   Light Drizzle
11:35 AM 34.0 °F 25.5 °F 31.5 °F 90% 30.20 in 3.0 mi North 11.5 mph - N/A   Light Drizzle
11:55 AM 33.8 °F 25.8 °F 31.8 °F 92% 30.20 in 3.0 mi NNE 10.4 mph - N/A   Light Drizzle
12:15 PM 33.6 °F 25.0 °F 31.6 °F 92% 30.20 in 3.0 mi North 11.5 mph - N/A   Light Drizzle
12:35 PM 33.3 °F 24.6 °F 31.1 °F 92% 30.20 in 4.0 mi North 11.5 mph 18.4 mph N/A   Overcast
12:55 PM 33.4 °F 23.9 °F 30.9 °F 90% 30.19 in 5.0 mi North 13.8 mph 20.7 mph N/A   Overcast
1:15 PM 33.8 °F 24.3 °F 30.9 °F 89% 30.19 in 5.0 mi North 13.8 mph 24.2 mph N/A   Overcast
1:35 PM 33.8 °F 24.8 °F 30.2 °F 87% 30.19 in 10.0 mi NNE 12.7 mph 17.3 mph N/A   Overcast
1:55 PM 35.1 °F 30.1 °F 30.6 °F 84% 30.18 in 10.0 mi North 5.8 mph - N/A   Overcast
2:15 PM 34.7 °F 24.7 °F 30.0 °F 83% 30.18 in 10.0 mi North 16.1 mph 21.9 mph N/A   Overcast
2:35 PM 35.1 °F 25.5 °F 29.7 °F 81% 30.17 in 10.0 mi NNE 15.0 mph 21.9 mph N/A   Overcast
2:55 PM 34.7 °F 26.4 °F 29.5 °F 81% 30.17 in 10.0 mi North 11.5 mph 19.6 mph N/A   Overcast
3:15 PM 34.7 °F 25.5 °F 29.7 °F 82% 30.17 in 10.0 mi North 13.8 mph 19.6 mph N/A   Overcast
3:35 PM 36.0 °F 28.0 °F 30.0 °F 79% 30.17 in 10.0 mi North 11.5 mph 19.6 mph N/A   Overcast
3:55 PM 36.1 °F 28.7 °F 29.8 °F 78% 30.17 in 10.0 mi North 10.4 mph 17.3 mph N/A   Overcast
4:15 PM 35.6 °F 28.0 °F 28.9 °F 77% 30.18 in 10.0 mi North 10.4 mph 19.6 mph N/A   Overcast
4:35 PM 35.6 °F 25.9 °F 29.1 °F 77% 30.19 in 10.0 mi North 16.1 mph 19.6 mph N/A   Overcast
4:55 PM 35.2 °F 26.2 °F 28.6 °F 77% 30.19 in 10.0 mi North 13.8 mph 18.4 mph N/A   Overcast
5:15 PM 35.4 °F 27.3 °F 28.2 °F 75% 30.19 in 10.0 mi North 11.5 mph 17.3 mph N/A   Overcast
5:35 PM 35.1 °F 27.4 °F 28.0 °F 76% 30.20 in 10.0 mi North 10.4 mph 17.3 mph N/A   Overcast
5:55 PM 35.1 °F 27.4 °F 28.0 °F 76% 30.21 in 10.0 mi North 10.4 mph - N/A   Overcast
6:15 PM 35.1 °F 26.4 °F 27.1 °F 73% 30.22 in 10.0 mi North 12.7 mph - N/A   Overcast
6:35 PM 34.3 °F 26.5 °F 26.6 °F 73% 30.23 in 10.0 mi North 10.4 mph 18.4 mph N/A   Mostly Cloudy
6:55 PM 33.6 °F 25.0 °F 26.6 °F 75% 30.23 in 10.0 mi North 11.5 mph - N/A   Clear
7:15 PM 32.9 °F 24.7 °F 25.2 °F 73% 30.23 in 10.0 mi North 10.4 mph - N/A   Clear
7:35 PM 32.4 °F 25.3 °F 25.0 °F 74% 30.24 in 10.0 mi North 8.1 mph - N/A   Clear
7:55 PM 32.0 °F 24.8 °F 23.4 °F 70% 30.23 in 10.0 mi North 8.1 mph - N/A   Clear
8:15 PM 32.0 °F 25.6 °F 22.3 °F 67% 30.24 in 10.0 mi North 6.9 mph - N/A   Clear
8:35 PM 31.8 °F 27.3 °F 22.5 °F 68% 30.24 in 10.0 mi North 4.6 mph - N/A   Clear
8:55 PM 31.6 °F 25.1 °F 23.0 °F 70% 30.24 in 10.0 mi North 6.9 mph - N/A   Clear
9:15 PM 31.3 °F 26.6 °F 23.0 °F 71% 30.24 in 10.0 mi North 4.6 mph - N/A   Clear
9:35 PM 30.9 °F 25.2 °F 23.0 °F 72% 30.25 in 10.0 mi North 5.8 mph - N/A   Clear
9:55 PM 31.1 °F 27.7 °F 23.0 °F 72% 30.24 in 10.0 mi North 3.5 mph - N/A   Clear
10:15 PM 30.9 °F - 22.6 °F 71% 30.24 in 10.0 mi Calm Calm - N/A   Clear
10:35 PM 30.2 °F 26.7 °F 22.1 °F 72% 30.24 in 10.0 mi NNW 3.5 mph - N/A   Clear
10:55 PM 30.0 °F - 21.2 °F 70% 30.24 in 10.0 mi Calm Calm - N/A   Clear
11:15 PM 29.7 °F 26.1 °F 21.0 °F 70% 30.25 in 10.0 mi NNW 3.5 mph - N/A   Clear
11:35 PM 29.8 °F - 20.7 °F 69% 30.25 in 10.0 mi Calm Calm - N/A   Clear
11:55 PM 29.1 °F 25.4 °F 20.8 °F 71% 30.25 in 10.0 mi NW 3.5 mph - N/A   Clear